EHI
3 3 4 7 8 8 8 7 6 5 4 3 1 0 0 0 0 0 0 0 1 1 2 3 3 3 3 3 3 3 3 3 3 3 3 3 3 3 3 3 3 3 3
5 6 7 10 12 13 11 8 7 5 4 3 2 1 0 0 0 0 0 0 1 2 2 3 3 3 3 3 3 3 3 3 3 3 3 3 3 3 3 3 3 3 3
9 10 13 15 18 18 14 10 8 7 6 4 4 3 2 2 1 1 1 1 1 2 3 3 3 3 3 3 3 3 3 3 3 3 3 3 3 3 3 3 3 3 3
12 13 15 18 20 20 17 12 10 8 7 6 6 7 6 4 3 2 2 2 2 3 3 3 3 3 3 3 3 3 3 3 3 3 3 3 3 3 3 3 3 3 3
13 14 15 16 18 19 18 14 12 10 9 8 8 9 8 6 4 4 4 3 3 3 3 3 3 3 4 4 4 3 3 3 3 3 3 3 3 3 3 3 3 3 3
12 14 14 14 16 18 18 16 15 14 13 13 11 10 10 8 6 6 6 5 5 4 4 3 3 4 4 5 4 4 4 3 3 3 3 3 3 3 3 3 3 3 3
12 14 15 15 18 20 20 20 20 19 19 18 17 15 13 12 10 9 8 8 7 6 5 5 5 5 5 5 4 4 4 4 4 4 4 4 3 3 3 3 3 3 2
12 15 16 17 21 24 23 24 24 22 22 22 21 20 18 16 14 11 10 9 7 6 7 8 8 8 7 5 4 3 4 5 6 6 6 5 5 4 4 3 3 3 2
11 14 18 21 24 26 26 27 28 27 25 24 24 23 21 19 16 13 12 11 8 7 8 10 9 9 8 6 4 4 4 5 6 7 6 6 5 5 4 3 4 5 6
10 13 19 23 25 26 28 29 31 32 30 27 26 24 21 19 17 16 16 14 10 8 8 9 9 8 8 7 5 5 6 6 7 7 6 4 4 4 4 3 4 6 7
10 13 19 24 25 25 27 30 32 33 32 30 27 23 20 18 18 19 19 17 12 8 7 8 8 9 8 8 7 8 9 9 9 8 5 4 4 4 4 4 5 6 5
13 17 22 25 24 25 27 29 29 29 30 30 26 23 22 19 18 19 20 18 13 8 7 7 8 8 8 8 8 10 11 11 10 8 6 5 6 5 5 5 5 5 5
16 19 22 23 22 23 25 26 25 25 28 28 24 22 23 20 17 16 17 17 13 9 6 6 6 5 5 6 8 11 11 9 9 8 7 8 8 6 5 5 4 4 4
15 17 17 17 18 20 22 23 23 24 25 26 24 22 22 19 15 13 12 12 10 8 6 5 5 4 4 5 8 11 11 9 8 8 7 8 9 7 6 5 4 4 3
13 13 13 14 15 17 18 20 22 24 25 26 26 23 21 17 12 10 10 9 9 9 9 8 7 7 6 6 8 11 12 10 7 7 7 7 7 7 6 5 4 3 4
13 12 11 12 13 14 15 17 20 24 26 26 27 26 23 18 14 12 13 13 12 11 12 13 12 10 8 6 6 9 10 9 6 6 7 7 6 4 4 3 2 2 3
16 15 12 11 10 11 12 14 18 22 25 24 24 24 23 20 17 17 18 18 16 15 16 17 15 11 7 5 4 5 7 6 6 6 7 8 6 3 3 2 2 2 2
18 17 14 11 9 9 9 11 16 20 21 21 20 21 21 21 20 20 21 20 18 18 19 19 17 13 7 4 3 3 4 4 5 6 8 9 7 4 3 5 5 3 2
14 14 13 11 10 9 8 9 13 16 17 17 19 20 20 20 20 21 21 21 20 19 19 19 19 16 10 4 1 1 3 4 5 6 7 7 5 3 3 6 7 5 4
10 10 10 9 10 9 8 9 11 14 15 16 19 21 21 22 22 21 21 20 19 17 16 16 17 17 12 5 1 1 3 6 6 5 4 3 2 1 2 5 7 6 6
8 9 9 9 8 8 8 8 10 12 14 17 19 21 21 22 21 19 18 16 14 13 13 12 12 13 10 5 1 1 3 6 7 5 2 1 0 0 2 4 5 6 6
6 7 8 7 6 7 7 7 7 9 13 16 18 19 19 18 17 16 14 12 10 9 9 9 9 9 8 4 1 0 2 3 5 4 2 1 0 0 1 1 3 4 4
4 4 4 3 3 3 5 6 6 8 12 14 16 17 16 14 12 12 10 8 6 6 7 7 7 7 8 6 3 1 0 1 2 3 2 1 0 0 0 0 1 3 3
1 2 3 3 2 2 4 6 8 10 12 13 14 14 13 9 8 8 7 5 4 5 6 6 6 7 8 7 5 2 1 0 0 1 1 0 0 0 0 0 1 3 4
1 3 5 5 3 3 4 5 8 11 11 11 11 11 9 7 6 6 5 3 3 3 4 5 5 6 7 6 4 2 1 0 0 0 0 0 0 0 0 1 2 4 5
2 4 6 6 4 4 4 5 7 9 10 10 10 9 8 6 6 6 5 2 2 2 2 2 3 4 5 4 2 1 1 0 0 0 0 0 0 0 0 1 2 4 5
Wind_Speed
8 7 8 8 8 8 8 8 8 7 5 3 3 3 3 2 2 3 4 4 4 4 3 3 2 2 2 2 2 2 1 0 1 1 2 2 1 1 1 1 1 2 3
7 8 8 8 9 9 9 9 9 8 7 5 4 3 3 2 2 2 2 3 4 4 4 3 3 3 2 2 2 2 1 1 1 1 0 2 3 2 1 1 1 2 1
10 10 11 11 10 10 10 10 9 8 8 6 3 2 2 1 1 2 2 3 4 4 4 4 3 3 3 3 3 3 3 2 1 1 2 1 2 2 2 1 1 1 1
9 9 10 10 11 11 10 9 8 8 7 7 6 6 5 4 4 3 3 3 3 4 4 4 4 4 3 3 3 3 3 3 2 1 1 2 2 1 2 2 1 2 2
10 11 12 12 11 10 9 9 8 8 7 8 8 7 6 4 3 2 3 3 3 4 4 4 4 4 3 4 3 3 4 3 3 2 2 1 1 1 2 2 2 2 2
10 10 9 8 8 8 8 8 8 8 8 9 8 8 8 6 5 4 4 3 2 3 4 4 4 4 4 4 4 4 4 4 3 3 2 2 2 3 3 3 2 2 2
9 9 8 9 8 9 9 8 9 9 8 9 9 9 9 8 8 7 5 4 3 3 4 4 4 4 4 4 4 4 4 4 4 4 3 3 3 3 3 2 2 2 2
7 9 10 10 10 10 10 10 10 9 9 9 9 8 8 6 6 6 5 5 4 5 4 4 4 4 4 4 4 3 4 4 4 5 4 3 4 3 3 3 2 2 2
6 8 9 10 10 10 10 11 10 9 9 9 8 7 8 7 7 6 6 4 4 4 4 4 4 4 4 4 4 4 4 4 4 5 5 4 3 3 4 3 3 3 2
3 4 6 8 9 10 9 9 10 10 8 8 8 8 8 8 7 6 6 5 5 4 4 4 5 5 5 5 5 4 4 4 4 4 4 4 3 3 3 3 3 3 3
4 4 5 6 7 6 7 7 8 7 7 8 7 7 7 7 7 6 6 6 5 5 5 5 5 5 5 5 5 5 5 5 5 4 4 5 3 3 3 3 3 3 3
3 2 2 3 4 6 6 7 7 7 7 6 6 7 6 6 6 6 6 5 5 5 5 5 5 6 5 5 6 6 5 6 5 5 4 5 3 4 3 3 4 4 4
1 1 2 3 5 6 6 6 6 6 6 6 6 6 6 6 6 6 5 5 5 4 4 4 5 6 6 5 6 6 5 6 6 5 6 6 5 5 4 4 4 3 3
1 1 1 2 4 5 5 6 6 6 6 6 6 7 7 7 6 6 5 5 5 5 5 5 5 6 5 5 5 5 5 5 6 6 6 6 6 6 5 5 5 4 3
1 1 1 1 2 3 3 4 4 4 5 6 6 7 6 6 5 5 4 4 4 5 5 5 5 5 5 5 5 5 5 5 5 5 5 6 7 7 6 5 4 4 4
2 1 0 0 1 2 3 3 3 4 4 5 5 5 5 5 5 5 5 5 4 4 4 5 6 6 5 6 7 6 5 5 5 4 4 5 5 6 7 7 7 7 6
1 1 1 1 2 2 3 3 3 3 4 4 4 5 5 5 6 5 5 4 4 4 4 5 4 5 5 6 6 6 5 5 4 4 3 3 3 4 4 4 5 6 7
2 2 1 2 2 1 1 2 2 3 4 4 4 5 6 6 5 5 5 5 4 4 4 5 4 4 5 6 6 6 6 5 5 4 4 4 4 3 4 3 3 4 5
2 2 2 2 2 1 2 2 2 3 3 4 5 5 6 6 6 6 6 5 4 4 4 4 4 4 5 6 7 6 4 4 5 5 5 5 5 4 3 3 4 4 4
1 1 1 0 1 2 2 3 3 3 4 5 5 4 4 6 6 6 5 4 4 5 4 4 4 5 5 6 7 7 4 4 4 4 4 6 5 5 4 4 5 5 5
2 1 0 0 2 2 1 3 3 4 4 2 2 3 4 5 5 5 4 4 4 4 3 3 3 4 5 5 6 7 5 5 4 4 4 4 5 5 5 5 5 7 5
2 1 1 1 2 1 2 2 3 3 1 1 2 3 3 3 4 4 4 4 4 4 3 2 3 3 3 4 5 7 7 6 5 5 4 4 5 6 5 4 5 6 4
2 1 1 2 2 2 2 3 3 2 1 2 2 3 2 2 3 4 4 4 4 4 3 4 4 3 3 3 5 6 7 7 5 4 4 4 5 4 4 4 5 4 3
2 1 1 2 3 3 2 3 2 2 2 2 2 2 2 2 2 2 3 4 4 4 4 4 3 3 3 3 3 3 3 4 4 3 2 3 3 3 3 2 3 3 3
2 1 2 3 4 3 2 2 2 1 1 1 1 1 1 2 2 2 2 3 3 5 5 4 4 4 5 5 6 4 4 3 3 2 1 1 1 1 2 2 2 2 2
3 2 3 3 3 3 3 2 1 1 2 1 1 1 1 1 2 2 1 1 2 3 4 4 5 4 5 5 5 5 4 4 4 3 2 2 2 3 3 3 2 2 2
Wind_Direction
201 189 188 185 179 178 179 183 186 183 167 163 173 180 199 203 207 214 215 207 200 192 184 195 183 178 186 202 190 177 181 197 120 65 335 327 318 282 266 262 264 269 259
186 187 184 184 187 187 188 190 193 185 180 183 177 178 178 189 198 212 208 204 198 195 195 191 189 185 182 190 188 173 162 183 141 144 72 340 341 332 308 279 256 271 272
197 193 190 191 189 191 194 198 198 192 187 179 156 148 128 123 180 205 209 208 198 198 198 194 192 190 186 197 196 179 175 193 196 172 157 169 257 312 328 327 319 320 308
201 197 194 194 195 197 194 195 192 192 188 177 176 179 188 199 206 201 204 210 205 204 200 196 194 195 194 199 203 188 186 176 198 206 204 196 180 200 313 325 330 317 296
200 197 197 196 196 192 191 193 191 194 188 186 188 190 201 205 196 192 203 214 215 212 206 197 194 197 199 204 204 188 189 188 192 193 188 189 186 193 214 279 311 322 301
199 199 197 188 189 184 186 187 190 200 193 191 193 195 198 193 191 201 206 212 212 216 215 205 201 201 201 204 207 200 196 200 201 201 198 190 188 194 198 232 266 291 298
192 189 187 188 188 186 188 187 191 201 197 196 199 200 200 195 200 203 205 207 208 214 217 210 206 206 207 205 200 197 204 203 204 210 215 216 218 191 186 205 242 266 286
191 188 191 191 191 191 190 190 194 200 197 199 204 202 199 199 207 207 203 207 212 217 209 202 211 215 210 207 198 208 211 207 213 221 219 223 226 205 196 196 198 243 271
197 195 191 190 189 191 194 193 194 197 199 202 201 201 201 203 207 205 205 206 208 211 206 203 210 216 213 205 196 216 218 212 218 224 224 229 232 213 214 207 197 200 238
212 205 196 195 194 193 194 191 192 196 197 197 200 204 203 204 203 200 204 202 205 207 193 195 208 214 212 206 204 212 217 221 228 224 224 231 235 224 216 212 213 212 214
216 210 203 198 193 187 184 188 192 191 192 196 199 202 202 201 199 202 205 204 202 199 203 206 208 214 216 210 206 213 213 220 231 230 226 233 226 226 221 209 210 213 207
218 205 180 173 178 181 180 185 189 191 195 192 193 199 197 194 198 204 207 203 203 204 209 207 209 217 217 210 210 217 216 217 225 230 228 237 230 229 223 215 219 219 213
184 155 154 170 182 185 185 185 186 192 194 188 191 194 195 196 201 206 207 203 201 203 209 211 216 220 217 212 213 214 217 219 224 225 227 234 224 230 228 223 225 227 223
182 159 180 188 190 186 187 187 190 188 189 189 193 196 200 200 201 202 202 204 203 201 206 215 218 219 217 215 214 214 218 223 228 227 226 227 222 227 229 229 229 223 220
255 196 175 195 197 184 185 190 188 184 185 186 192 200 199 195 191 196 202 204 205 211 211 215 219 221 218 218 213 213 215 221 232 235 233 232 228 229 227 229 223 212 213
249 277 331 218 190 178 186 189 190 190 181 183 195 192 187 186 187 193 196 200 206 212 209 216 219 223 228 226 213 207 215 217 221 233 243 242 234 237 235 234 225 213 212
239 270 274 250 222 211 191 186 192 180 177 185 190 186 184 190 196 194 187 198 206 212 215 219 216 224 232 229 219 208 205 212 215 221 231 248 251 237 237 238 231 226 226
208 236 252 256 254 235 215 175 161 171 179 183 192 190 185 192 193 190 197 202 206 210 220 225 222 226 233 221 215 209 208 213 216 216 219 228 245 245 231 234 235 237 236
230 242 254 249 254 242 215 164 171 181 180 185 197 202 194 194 194 197 203 203 199 210 217 220 222 226 238 224 214 207 210 214 221 222 218 219 227 240 225 224 237 247 253
286 260 277 292 262 258 192 166 188 195 210 210 212 208 201 200 203 208 206 198 199 210 210 222 223 222 231 227 217 206 208 216 227 229 227 227 226 227 210 213 224 238 248
284 260 231 289 277 273 181 180 199 220 234 231 224 218 211 207 204 204 202 196 200 200 206 220 233 231 232 228 219 209 209 215 221 230 234 234 219 222 224 219 225 233 236
295 280 256 278 288 259 174 202 228 242 246 234 235 239 226 215 201 192 200 198 194 199 208 224 249 243 232 226 223 218 221 219 221 231 231 228 216 220 228 227 236 232 224
288 296 261 269 281 258 200 214 246 239 205 199 218 231 235 221 199 193 197 199 196 201 212 217 235 254 247 235 229 225 226 221 221 231 229 224 220 222 225 230 232 226 216
282 288 274 268 281 282 251 235 252 231 197 217 219 213 222 224 203 196 199 203 203 203 209 217 230 248 247 239 232 230 228 224 225 231 222 214 212 219 228 227 219 221 224
283 258 238 252 265 275 274 263 241 199 187 225 250 249 243 214 190 194 212 216 218 212 207 214 213 231 248 242 227 221 223 220 220 202 194 194 201 216 226 230 235 232 224
263 270 259 251 263 267 266 273 255 182 177 214 251 247 252 215 185 178 241 288 242 248 233 227 216 237 244 236 216 217 214 212 196 174 204 215 219 226 234 239 248 246 241